This is the latest recevied weather packets stored in our database for station/object SQ7KHZ-10. If no packets are shown the sender has not sent any weather packets the latest 10 day(s).
| Time | Temp. | Humidity | Pressure | Rain* | Wind** | Luminosity | Snow |
|---|---|---|---|---|---|---|---|
| 1777443916 | 4.44° C | 58% | 1026.8 hPa | 0 mm | - | - | - |
| 1777442712 | 4.44° C | 59% | 1026.6 hPa | 0 mm | - | - | - |
| 1777441494 | 3.89° C | 60% | 1026.4 hPa | 0 mm | - | - | - |
| 1777440287 | 2.78° C | 66% | 1026.2 hPa | 0 mm | - | - | - |
| 1777439080 | 2.22° C | 69% | 1026.1 hPa | 0 mm | - | - | - |
| 1777437871 | 1.67° C | 71% | 1026.1 hPa | 0 mm | - | - | - |
| 1777436667 | 1.11° C | 76% | 1026 hPa | 0 mm | - | - | - |
| 1777435467 | 0.56° C | 78% | 1025.7 hPa | 0 mm | - | - | - |
| 1777434255 | 0° C | 78% | 1025.5 hPa | 0 mm | - | - | - |
| 1777433044 | 0.56° C | 77% | 1025.3 hPa | 0 mm | - | - | - |
| 1777431843 | 1.11° C | 74% | 1025.3 hPa | 0 mm | - | - | - |
| 1777430631 | 1.67° C | 74% | 1025.3 hPa | 0 mm | - | - | - |
| 1777429430 | 1.67° C | 75% | 1025.2 hPa | 0 mm | - | - | - |
| 1777428229 | 2.22° C | 78% | 1025.1 hPa | 0 mm | - | - | - |
| 1777427028 | 2.78° C | 78% | 1025 hPa | 0 mm | - | - | - |
| 1777425826 | 2.78° C | 78% | 1024.8 hPa | 0 mm | - | - | - |
| 1777424621 | 3.33° C | 77% | 1024.6 hPa | 0 mm | - | - | - |
| 1777423418 | 2.78° C | 75% | 1024.7 hPa | 0 mm | - | - | - |
| 1777422216 | 2.22° C | 84% | 1024.5 hPa | 0 mm | - | - | - |
| 1777421016 | 2.78° C | 81% | 1024.6 hPa | 0 mm | - | - | - |
| 1777419804 | 2.78° C | 76% | 1024.5 hPa | 0 mm | - | - | - |
| 1777418592 | 3.33° C | 81% | 1024.6 hPa | 0 mm | - | - | - |
| 1777417394 | 3.33° C | 76% | 1024.5 hPa | 0 mm | - | - | - |
| 1777416192 | 3.89° C | 77% | 1024.5 hPa | 0 mm | - | - | - |
| 1777414980 | 3.89° C | 73% | 1024.6 hPa | 0 mm | - | - | - |
* Rain latest hour (hover to see other rain measurements)
** Current wind speed in m/s (hover to see current wind gust speed)